DateTimeUTC,F1_A11,F1_S11,BsB_S11,BsG_S11,BsR_S11,BbsB_S11,BbsG_S11,BbsR_S11,BaB_A11,BaG_A11,BaR_A11,Tu_S11,T_S11,Uu_S11,U_S11,P_S11,T1_A11
2021-01-19T16:00:00Z,00000200,21000000,,,,,,,-000.12,-000.37,-000.07,15.5,23.2,,00.0,0648.1,30.8
2021-01-19T16:01:00Z,00000200,21000000,,,,,,,-000.08,0000.06,-000.25,15.5,23.2,,00.0,0648.1,30.7
2021-01-19T16:02:00Z,00000200,21000000,,,,,,,-000.22,0000.22,0000.12,15.4,23.2,,00.0,0648.1,30.7
2021-01-19T16:03:00Z,00000200,61000000,,,,,,,-000.07,-000.28,-000.02,15.4,23.2,,00.0,0648.1,30.7
2021-01-19T16:04:00Z,00000200,41000000,-000.77,-000.13,0000.08,0000.53,0000.20,0000.27,-000.01,-000.45,-000.44,15.4,22.8,,00.0,0648.9,30.7
2021-01-19T16:05:00Z,00000200,01000000,0000.30,0000.07,0000.15,0000.26,0000.26,-000.12,0000.23,0000.32,0000.39,15.5,22.7,,00.0,0648.9,30.7
2021-01-19T16:06:00Z,00000200,01000000,-000.07,0000.28,0000.33,0000.23,-000.01,0000.00,0000.27,0000.52,0000.35,15.5,22.6,,00.0,0648.9,30.7
2021-01-19T16:07:00Z,00000200,01000000,-000.60,0000.23,0000.22,0000.26,0000.05,0000.12,0000.21,-000.20,0000.19,15.5,22.6,,00.0,0648.8,30.7
2021-01-19T16:08:00Z,00000200,01000000,-000.07,0000.43,0000.10,0000.28,0000.09,-000.02,0000.05,0000.38,0000.06,15.5,22.6,,00.0,0648.9,30.7
2021-01-19T16:09:00Z,00000200,01000000,0000.49,0000.23,0000.11,-000.18,-000.11,-000.02,0000.15,0000.38,0000.18,15.5,22.6,,00.0,0648.9,30.7
2021-01-19T16:10:00Z,00000200,01000000,-000.23,0000.29,0000.41,0000.09,-000.06,-000.03,0000.06,-000.24,-000.20,15.5,22.6,,00.0,0649.0,30.7
2021-01-19T16:11:00Z,00000200,01000000,-000.25,-000.03,0000.18,-000.53,0000.18,0000.08,-000.07,-000.04,0000.06,15.5,22.6,,00.0,0649.0,30.7
2021-01-19T16:12:00Z,00000200,01000000,-000.65,0000.27,0000.20,-000.20,-000.03,0000.15,0000.12,-000.04,-000.01,15.6,22.6,,00.0,0649.0,30.7
2021-01-19T16:13:00Z,00000200,01000000,-000.41,-000.28,0000.09,0000.00,-000.01,0000.04,0000.16,0000.25,0000.23,15.6,22.6,,00.0,0649.0,30.7
2021-01-19T16:14:00Z,00000200,01000000,-000.16,0000.07,0000.15,-000.14,0000.15,-000.11,-000.47,-000.53,-000.51,15.6,22.6,,00.0,0649.0,30.8
2021-01-19T16:15:00Z,00000200,01000000,-000.71,0000.10,0000.16,-000.05,0000.20,0000.04,0000.02,0000.26,0000.33,15.6,22.6,,00.0,0649.0,30.8
2021-01-19T16:16:00Z,00000200,01000000,-000.12,0000.18,0000.02,0000.08,-000.03,-000.00,-000.09,-000.06,-000.49,15.6,22.6,,00.0,0649.0,30.8
2021-01-19T16:17:00Z,00000200,01000000,0000.28,0000.36,0000.15,-000.25,0000.06,0000.37,0000.22,-000.01,0000.05,15.5,22.5,,00.0,0649.0,30.7
2021-01-19T16:18:00Z,00000200,01000000,-000.30,0000.26,0000.18,0000.62,0000.02,0000.19,-000.24,-000.58,0000.06,15.5,22.5,,00.0,0649.1,30.7
2021-01-19T16:19:00Z,00000200,01000000,-000.62,-000.10,0000.32,0000.22,-000.11,0000.23,-000.18,0000.16,0000.07,15.4,22.4,,00.0,0649.0,30.7
2021-01-19T16:20:00Z,00000200,01000000,-000.57,0000.14,0000.21,-000.38,-000.02,0000.18,0000.27,0000.14,0000.18,15.4,22.4,,00.0,0649.0,30.7
2021-01-19T16:21:00Z,00000200,01000000,-000.40,-000.07,0000.00,-000.20,0000.15,0000.04,0000.18,0000.09,0000.02,15.4,22.4,,00.0,0649.0,30.7
2021-01-19T16:22:00Z,00000200,01000000,-000.47,-000.20,0000.29,-000.22,0000.09,-000.18,-000.23,0000.14,-000.39,15.4,22.4,,00.0,0649.0,30.7
2021-01-19T16:23:00Z,00000200,01000000,-000.35,-000.05,0000.35,-000.02,-000.08,-000.16,0000.21,0000.05,0000.53,15.4,22.4,,00.0,0649.0,30.7
2021-01-19T16:24:00Z,00000200,01000000,-000.20,0000.27,0000.17,-000.09,-000.05,-000.02,0000.04,-000.25,-000.09,15.5,22.4,,00.0,0649.0,30.7
2021-01-19T16:25:00Z,00000200,01000000,-000.21,0000.23,0000.12,0000.51,0000.14,-000.06,-000.31,0000.15,-000.23,15.5,22.4,,00.0,0649.1,30.7
2021-01-19T16:26:00Z,00000200,01000000,-000.83,0000.24,0000.07,-000.11,0000.05,0000.21,0000.47,0000.32,0000.18,15.5,22.4,,00.0,0649.1,30.7
2021-01-19T16:27:00Z,00000200,01000000,-000.15,-000.03,0000.19,0000.28,0000.24,-000.01,-000.35,-000.15,-000.12,15.5,22.4,,00.0,0649.1,30.8
2021-01-19T16:28:00Z,00000200,01000000,0000.27,0000.09,0000.21,-000.01,-000.10,0000.06,-000.18,-000.19,0000.04,15.6,22.4,,00.0,0649.1,30.8
2021-01-19T16:29:00Z,00000200,01000000,-000.18,-000.06,0000.10,-000.00,0000.02,0000.26,0000.37,0000.10,0000.09,15.5,22.4,,00.0,0649.0,30.8
2021-01-19T16:30:00Z,00000200,01000000,-000.24,-000.06,0000.15,0000.38,0000.15,0000.23,0000.23,-000.07,-000.19,15.5,22.4,,00.0,0648.9,30.8
2021-01-19T16:31:00Z,00000200,01000000,-000.48,0000.07,0000.30,-000.08,0000.25,0000.11,-000.23,0000.06,0000.00,15.4,22.4,,00.0,0648.9,30.8
2021-01-19T16:32:00Z,00000200,01000000,0000.00,0000.17,0000.23,-000.09,-000.06,0000.26,0000.28,0000.13,0000.15,15.4,22.3,,00.0,0648.9,30.8
2021-01-19T16:33:00Z,00000200,01000000,-000.66,0000.12,0000.13,0000.06,0000.16,0000.12,-000.43,0000.09,-000.28,15.3,22.3,,00.0,0648.9,30.7
2021-01-19T16:34:00Z,00000200,01000000,-000.66,0000.07,0000.24,0000.09,0000.05,0000.17,0000.09,-000.54,0000.11,15.3,22.3,,00.0,0648.9,30.7
2021-01-19T16:35:00Z,00000200,01000000,-000.56,0000.18,0000.29,-000.20,0000.28,0000.21,0000.12,0000.20,0000.07,15.3,22.2,,00.0,0648.9,30.7
2021-01-19T16:36:00Z,00000200,01000000,0000.47,0000.38,0000.25,0000.06,-000.03,0000.30,0000.15,-000.05,-000.07,15.3,22.2,,00.0,0648.9,30.7
2021-01-19T16:37:00Z,00000200,01000000,-000.86,0000.02,0000.14,0000.06,-000.07,0000.02,0000.26,0000.47,0000.50,15.3,22.2,,00.0,0648.9,30.7
2021-01-19T16:38:00Z,00000200,01000000,-000.50,-000.07,0000.04,-000.11,0000.28,0000.19,-000.26,-000.05,0000.04,15.3,22.2,,00.0,0648.9,30.7
2021-01-19T16:39:00Z,00000200,01000000,-000.18,0000.26,0000.06,0000.01,0000.02,-000.10,0000.53,0000.16,0000.18,15.4,22.2,,00.0,0649.0,30.7
2021-01-19T16:40:00Z,00000200,01000000,-000.28,0000.35,0000.04,-000.04,-000.11,0000.06,-000.17,-000.06,-000.18,15.4,22.2,,00.0,0649.0,30.7
2021-01-19T16:41:00Z,00000200,01000000,-000.42,0000.19,0000.36,0000.24,0000.19,-000.06,-000.18,-000.23,-000.16,15.4,22.2,,00.0,0649.0,30.7
2021-01-19T16:42:00Z,00000200,01000000,-000.21,0000.08,0000.07,0000.02,-000.06,0000.06,-000.01,0000.01,-000.00,15.4,22.2,,00.0,0649.0,30.7
2021-01-19T16:43:00Z,00000200,01000000,-000.42,0000.08,0000.27,0000.07,0000.12,-000.09,0000.14,0000.33,-000.02,15.4,22.2,,00.0,0649.0,30.8
2021-01-19T16:44:00Z,00000200,01000000,-000.22,-000.11,-000.14,0000.54,-000.04,-000.15,-000.22,-000.04,-000.09,15.4,22.2,,00.0,0648.9,30.8
2021-01-19T16:45:00Z,00000200,01000000,0000.33,0000.11,0000.02,0000.20,-000.01,0000.09,0000.13,0000.33,0000.23,15.3,22.2,,00.0,0648.9,30.7
2021-01-19T16:46:00Z,00000200,01000000,-000.58,0000.33,0000.23,0000.32,0000.06,0000.23,0000.04,-000.52,-000.21,15.3,22.2,,00.0,0648.9,30.7
2021-01-19T16:47:00Z,00000200,01000000,-000.07,0000.09,0000.13,0000.08,0000.22,0000.16,-000.13,0000.15,0000.06,15.2,22.2,,00.0,0648.8,30.7
2021-01-19T16:48:00Z,00000200,01000000,-000.29,0000.15,0000.21,-000.45,-000.02,0000.15,-000.01,0000.01,0000.16,15.2,22.1,,00.0,0648.8,30.7
2021-01-19T16:49:00Z,00000200,01000000,0000.09,0000.57,0000.16,0000.15,0000.33,0000.15,0000.11,-000.16,0000.19,15.1,22.1,,00.0,0648.8,30.7
2021-01-19T16:50:00Z,00000200,01000000,-000.62,0000.02,0000.45,0000.22,-000.09,0000.12,0000.18,0000.09,-000.42,15.1,22.0,,00.0,0648.8,30.7
2021-01-19T16:51:00Z,00000200,01000000,-000.08,0000.28,-000.09,0000.55,-000.02,0000.15,0000.15,0000.41,0000.29,15.1,22.0,,00.0,0648.8,30.7
2021-01-19T16:52:00Z,00000200,01000000,-000.37,0000.23,0000.01,-000.34,-000.12,0000.19,-000.08,-000.17,0000.08,15.1,22.0,,00.0,0648.8,30.7
2021-01-19T16:53:00Z,00000200,01000000,-000.36,0000.11,0000.05,-000.18,-000.06,0000.22,0000.61,0000.09,0000.01,15.1,22.0,,00.0,0648.8,30.7
2021-01-19T16:54:00Z,00000200,01000000,-000.65,0000.13,0000.04,0000.47,0000.20,-000.04,-000.10,0000.29,0000.29,15.2,22.0,,00.0,0648.8,30.7
2021-01-19T16:55:00Z,00000200,01000000,0000.04,0000.19,-000.02,0000.18,-000.07,0000.20,0000.03,-000.11,0000.11,15.2,22.1,,00.0,0648.8,30.7
2021-01-19T16:56:00Z,00000200,01000000,-000.18,-000.09,0000.36,-000.13,0000.05,0000.15,-000.17,0000.17,-000.17,15.3,22.1,,00.0,0648.8,30.7
2021-01-19T16:57:00Z,00000200,41000000,,,,,,,0000.33,0000.41,0000.09,15.3,22.1,,00.0,0648.8,30.7
2021-01-19T16:58:00Z,00000200,61000000,,,,,,,-000.14,-000.25,-000.28,15.0,22.3,,00.0,0647.9,30.8
2021-01-19T16:59:00Z,00000200,21000000,,,,,,,-000.37,-000.26,0000.13,15.0,22.4,,00.0,0647.9,30.8
